Volver al catálogo

TOMORROW-S11

ActivoMeteoSSO
NORAD 67399·PAYLOAD·🇺🇸 United States

Lanzado Jan 11, 2026 desde Vandenberg Space Force Base

Loading…

Próximos Pases (próximas 24 horas)

TLE

ActualizadoSource: Space-Track

Época: Sep 14, 2026, 07:16 UTC

1 67399U 26004AN  26257.30287412  .00006555  00000-0  30513-3 0  9991
2 67399  97.4624 255.5520 0008380  44.6686 315.5223 15.20235762 37302

Sigue TOMORROW-S11 en tiempo real con AllMySat

Download on the App Store